User: anonymous   Login
Location: Blankensee
(53.5126°N, 14.3055°E)
Time: 18:46:44
(UTC+00:00)
Language:

SL-16 R/B - Orbit

View from above orbital plane
View from above orbital plane
View from above satellite
View from above satellite

Ground track
Ground track

The orbit data is extracted from the following two-line orbital elements,

1 27006U 01056F   20296.21534699 -.00000047  00000-0 -28539-5 0  9990
2 27006  99.4921  65.9214 0014803  15.8303  46.6308 13.70964422944084
Epoch (UTC): 22 October 2020 05:10:05
Eccentricity: 0.0014803
inclination: 99.4921°
perigee height: 985 km
apogee height: 1007 km
right ascension of ascending node: 65.9214°
argument of perigee: 15.8303°
revolutions per day: 13.70964422
mean anomaly at epoch: 46.6308°
orbit number at epoch: 94408

The dashed part of the orbit path shows where the satellite is in the earth's shadow,  

DLR